Weather in Lodz

0206 UTC 19 November 2019 EPLL 190200Z VRB01KT 0350 R25/1300D FG NSC 03/03 Q1018

Where pilots are born

  • Michele from Italy

    „The best”

  • Maciej from UK

    “Great place, good aircrafts and amazing atmosphere!!!”

  • Alan from Ireland

    “Fantastic flight school . Fleet of aircraft are exceptional . Instructors are second to none . I couldn't speak any higher...

22000+

Operations per year

1500+

Number of trained pilots

55+

Nationality students

How to join the training?